Flag for Canada Weather past 2 weeks in Timmins, Ontario, Canada

Now
68 °F

Scattered clouds.


Feels Like: 68 °F
Forecast: 49 / 71 °F
Wind: 6 mph from Southwest

Location: Timmins

Current Time: Aug 27, 2015 at 3:28:49 PM

Latest Report: Aug 27, 2015 at 3:00 PM


Visibility: 15 mi

Pressure: 30.08 "Hg

Humidity: 56%

Dew point: 52 °F

Location of TimminsLocation

Historic Weather in Timmins — Graph

°F

Timmins temperature yesterday

Maximum temperature yesterday: 57 °F (at 5:00 PM)
Minimum temperature yesterday: 48 °F (at 2:00 AM)
Average temperature yesterday: 52 °F

Past Weeks' High & Low Weather Summary

 TemperatureHumidityPressure
High88 °F (Aug 16, 4:00 PM)100% (Aug 13, 2:00 AM)30.14 "Hg (Aug 13, 2:00 AM)
Low45 °F (Aug 13, 1:00 AM)37% (Aug 14, 3:00 PM)29.54 "Hg (Aug 20, 11:00 AM)
Average63 °F82%29.88 "Hg
* Reported Aug 12 2:00 PM — Aug 27 2:00 PM, Timmins, Weather by CustomWeather, © 2015

Note: Actual official high and low records may vary slightly from our data, if they occured in-between our weather recording intervals... More about our weather records

Advertising

Timmins weather history for previous 24 hours

 ConditionsComfort  
Time TempWeatherWind HumidityBarometerVisibility
2:00 PM
Thu, Aug 27
66 °FPassing clouds.8 mph60%30.10 "Hg15 mi
1:00 PM63 °FPassing clouds.7 mph68%30.11 "Hg15 mi
12:00 PM61 °FScattered clouds.7 mph68%30.12 "Hg15 mi
11:00 AM55 °FPartly sunny.5 mph82%30.13 "Hg15 mi
10:49 AM55 °FPartly sunny.6 mph82%30.13 "Hg15 mi
10:00 AM52 °FLow clouds.7 mph94%30.13 "Hg15 mi
9:00 AM54 °FLow clouds.6 mph88%30.14 "Hg10 mi
8:00 AM52 °FLow clouds.5 mph94%30.13 "Hg15 mi
7:58 AM52 °FLow clouds.6 mph94%30.13 "Hg15 mi
7:00 AM50 °FOvercast.5 mph100%30.11 "Hg15 mi
6:00 AM50 °FOvercast.3 mph94%30.09 "Hg15 mi
5:00 AM50 °FLow clouds.5 mph94%30.09 "Hg15 mi
4:00 AM50 °FMostly cloudy.5 mph94%30.08 "Hg10 mi
3:00 AM50 °FFog.5 mph94%30.09 "Hg6 mi
2:00 AM52 °FMostly cloudy.7 mph94%30.09 "Hg15 mi
1:00 AM52 °FMostly cloudy.7 mph94%30.09 "Hg15 mi
12:00 AM52 °FMostly cloudy.6 mph94%30.09 "Hg15 mi
11:00 PM
Wed, Aug 26
52 °FMostly cloudy.6 mph94%30.08 "Hg15 mi
10:00 PM54 °FMostly cloudy.5 mph88%30.07 "Hg15 mi
9:00 PM54 °FMostly cloudy.6 mph88%30.05 "Hg15 mi
8:00 PM55 °FPartly sunny.9 mph82%30.04 "Hg15 mi
7:00 PM55 °FMostly cloudy.9 mph82%30.03 "Hg15 mi
6:00 PM57 °FPartly sunny.8 mph77%30.02 "Hg15 mi
5:00 PM57 °FPartly sunny.8 mph77%30.01 "Hg15 mi
4:00 PM55 °FMostly cloudy.8 mph77%30.01 "Hg15 mi
3:00 PM55 °FMostly cloudy.13 mph77%30.01 "Hg15 mi
Weather by CustomWeather, © 2015

See weather overviewHow to use our weather pages